Stations météo

réclame
Mon MeteoGroup
Ancona, Italie (16190): Température de l'air & dewpoint: 16.06.2018 19:00:00 - 22.06.2018 19:00:00 (CEST)Ancona, Italie (16190): reduced air pressure: 16.06.2018 19:00:00 - 22.06.2018 19:00:00 (CEST)Ancona, Italie (16190): Quantités de précipitations: 16.06.2018 19:00:00 - 22.06.2018 19:00:00 (CEST)
Date & Time tt [°C] td [°C] ppp [hPa] rr [mm]
22.06.2018 19:00:00 - - - -
22.06.2018 18:00:00 18,1 17,7 1003,4 -
22.06.2018 17:00:00 18,1 16,9 1007,0 -
22.06.2018 16:00:00 19,0 17,6 1007,9 -
22.06.2018 15:00:00 20,9 18,4 1007,1 -
22.06.2018 14:00:00 25,5 19,6 1006,9 0,0
22.06.2018 13:00:00 25,9 20,6 1007,4 -
22.06.2018 12:00:00 25,7 20,4 1007,5 -
22.06.2018 11:00:00 26,1 14,8 1007,0 -
22.06.2018 10:00:00 25,3 16,4 1006,6 -
22.06.2018 09:00:00 24,8 16,2 1006,2 -
22.06.2018 08:00:00 24,2 14,5 1005,6 0,0
22.06.2018 07:00:00 23,7 14,0 1005,6 -
22.06.2018 06:00:00 23,7 16,2 1005,4 -
22.06.2018 05:00:00 23,8 16,3 1005,7 -
22.06.2018 04:00:00 24,3 16,2 1005,8 -
22.06.2018 03:00:00 23,8 17,0 1006,1 -
22.06.2018 02:00:00 23,9 18,0 1007,0 0,0
22.06.2018 01:00:00 23,4 18,4 1007,3 -
22.06.2018 00:00:00 23,6 18,2 1007,7 -
21.06.2018 23:00:00 24,0 18,3 1008,1 -
21.06.2018 22:00:00 24,7 17,6 1007,4 -
21.06.2018 21:00:00 24,8 15,1 1007,4 -
21.06.2018 20:00:00 25,6 15,2 1007,3 0,0
21.06.2018 19:00:00 27,8 17,0 1007,2 -
21.06.2018 18:00:00 27,0 16,2 1007,5 -
21.06.2018 17:00:00 26,7 19,5 1008,0 -
21.06.2018 16:00:00 26,6 20,4 1008,7 -
21.06.2018 15:00:00 27,0 19,0 1009,1 -
21.06.2018 14:00:00 26,8 19,9 1010,0 0,0
21.06.2018 13:00:00 26,6 19,4 1010,8 -
21.06.2018 12:00:00 26,4 19,5 1011,0 -
21.06.2018 11:00:00 26,5 19,6 1011,2 -
21.06.2018 10:00:00 27,1 20,6 1011,4 -
21.06.2018 09:00:00 24,8 18,7 1011,9 -
21.06.2018 08:00:00 22,6 18,3 1012,0 0,0
21.06.2018 07:00:00 20,8 17,2 1012,1 -
21.06.2018 06:00:00 21,1 16,8 1012,2 -
21.06.2018 05:00:00 21,4 16,7 1012,3 -
21.06.2018 04:00:00 21,5 15,9 1012,6 -
21.06.2018 03:00:00 21,8 15,8 1012,6 -
21.06.2018 02:00:00 22,6 16,8 1012,9 0,0
21.06.2018 01:00:00 22,3 16,9 1013,2 -
21.06.2018 00:00:00 22,6 16,8 1013,5 -
20.06.2018 23:00:00 23,2 15,9 1013,5 -
20.06.2018 22:00:00 23,3 13,7 1013,2 -
20.06.2018 21:00:00 24,4 14,4 1012,9 -
20.06.2018 20:00:00 26,5 17,2 1012,9 0,0
20.06.2018 19:00:00 26,7 18,8 1012,8 -
20.06.2018 18:00:00 27,0 20,3 1012,9 -
20.06.2018 17:00:00 28,1 17,0 1013,1 -
20.06.2018 16:00:00 27,2 16,4 1013,2 -
20.06.2018 15:00:00 26,5 18,6 1013,8 -
20.06.2018 14:00:00 27,3 18,8 1014,1 0,0
20.06.2018 13:00:00 27,6 20,4 1014,4 -
20.06.2018 12:00:00 27,0 19,0 1014,5 -
20.06.2018 11:00:00 - - - -
20.06.2018 10:00:00 24,5 19,7 1014,6 -
20.06.2018 09:00:00 23,5 18,3 1014,6 -
20.06.2018 08:00:00 22,3 17,6 1014,5 0,0
20.06.2018 07:00:00 21,4 16,9 1014,3 -
20.06.2018 06:00:00 20,8 17,0 1014,1 -
20.06.2018 05:00:00 20,8 16,1 1014,0 -
20.06.2018 04:00:00 21,4 16,3 1013,7 -
20.06.2018 03:00:00 21,6 16,3 1013,9 -
20.06.2018 02:00:00 22,2 16,6 1013,9 0,0
20.06.2018 01:00:00 22,6 17,2 1014,2 -
20.06.2018 00:00:00 22,8 17,0 1014,2 -
19.06.2018 23:00:00 23,2 16,4 1014,2 -
19.06.2018 22:00:00 22,9 15,9 1013,9 -
19.06.2018 21:00:00 23,3 16,3 1013,4 -
19.06.2018 20:00:00 24,9 17,3 1012,9 0,0
19.06.2018 19:00:00 26,7 13,4 1012,5 -
19.06.2018 18:00:00 26,5 15,8 1012,6 -
19.06.2018 17:00:00 27,3 15,3 1012,9 -
19.06.2018 16:00:00 28,0 15,9 1013,3 -
19.06.2018 15:00:00 27,4 15,0 1013,2 -
19.06.2018 14:00:00 27,4 17,8 1013,5 0,0
19.06.2018 13:00:00 27,2 16,4 1013,7 -
19.06.2018 12:00:00 27,2 16,4 1013,6 -
19.06.2018 11:00:00 26,4 16,0 1013,7 -
19.06.2018 10:00:00 25,7 19,0 1013,6 -
19.06.2018 09:00:00 25,0 18,6 1013,6 -
19.06.2018 08:00:00 24,0 19,2 1013,1 0,0
19.06.2018 07:00:00 22,3 19,0 1012,8 -
19.06.2018 06:00:00 21,5 17,6 1012,3 -
19.06.2018 05:00:00 21,9 18,6 1012,0 -
19.06.2018 04:00:00 22,1 18,2 1011,8 -
19.06.2018 03:00:00 22,4 18,7 1011,9 -
19.06.2018 02:00:00 22,3 18,8 1012,0 0,0
19.06.2018 01:00:00 22,7 18,6 1012,0 -
19.06.2018 00:00:00 22,9 19,2 1011,8 -
18.06.2018 23:00:00 23,3 19,6 1011,7 -
18.06.2018 22:00:00 22,9 19,0 1011,3 -
18.06.2018 21:00:00 23,2 19,1 1010,5 -
18.06.2018 20:00:00 24,2 19,0 1009,9 0,0
18.06.2018 19:00:00 25,1 19,2 1009,4 -
18.06.2018 18:00:00 24,9 19,7 1009,3 -
18.06.2018 17:00:00 26,2 20,0 1009,6 -
18.06.2018 16:00:00 25,5 19,8 1009,6 -
18.06.2018 15:00:00 26,2 20,9 1009,7 -
18.06.2018 14:00:00 26,6 19,7 1009,9 0,0
18.06.2018 13:00:00 26,5 19,3 1010,1 -
18.06.2018 12:00:00 26,5 21,2 1009,9 -
18.06.2018 11:00:00 25,0 20,4 1009,6 -
18.06.2018 10:00:00 25,3 20,3 1009,4 -
18.06.2018 09:00:00 24,1 20,2 1009,3 -
18.06.2018 08:00:00 22,0 16,9 1009,0 0,0
18.06.2018 07:00:00 21,0 16,1 1008,7 -
18.06.2018 06:00:00 20,5 15,4 1008,5 -
18.06.2018 05:00:00 20,4 15,3 1008,0 -
18.06.2018 04:00:00 20,6 15,3 1008,1 -
18.06.2018 03:00:00 20,7 15,6 1008,1 -
18.06.2018 02:00:00 21,0 16,7 1008,2 0,0
18.06.2018 01:00:00 21,5 18,0 1008,3 -
18.06.2018 00:00:00 22,5 18,8 1008,3 -
17.06.2018 23:00:00 22,3 20,0 1008,4 -
17.06.2018 22:00:00 22,6 19,3 1008,0 -
17.06.2018 21:00:00 23,4 17,3 1007,6 -
17.06.2018 20:00:00 24,4 16,8 1007,3 0,0
17.06.2018 19:00:00 25,6 16,7 1007,1 -
17.06.2018 18:00:00 25,3 18,9 1007,0 -
17.06.2018 17:00:00 26,5 20,3 1007,2 -
17.06.2018 16:00:00 26,6 20,1 1007,8 -
17.06.2018 15:00:00 26,5 21,4 1008,1 -
17.06.2018 14:00:00 25,9 21,1 1008,3 0,0
17.06.2018 13:00:00 25,8 20,8 1008,5 -
17.06.2018 12:00:00 25,0 20,0 1008,4 -
17.06.2018 11:00:00 23,9 19,1 1008,4 -
17.06.2018 10:00:00 23,8 19,0 1008,0 -
17.06.2018 09:00:00 22,6 17,4 1007,8 -
17.06.2018 08:00:00 21,5 16,2 1007,5 0,0
17.06.2018 07:00:00 20,2 14,7 1007,3 -
17.06.2018 06:00:00 19,8 13,9 1007,2 -
17.06.2018 05:00:00 19,8 13,9 1007,0 -
17.06.2018 04:00:00 19,9 14,2 1007,2 -
17.06.2018 03:00:00 20,1 13,7 1007,3 -
17.06.2018 02:00:00 20,6 11,7 1007,2 0,0
17.06.2018 01:00:00 21,0 12,1 1007,3 -
17.06.2018 00:00:00 21,0 16,3 1007,3 -
16.06.2018 23:00:00 21,6 16,9 1007,1 -
16.06.2018 22:00:00 21,9 16,8 1006,8 -
16.06.2018 21:00:00 22,2 16,2 1006,3 -
16.06.2018 20:00:00 23,3 13,9 1006,1 0,0
16.06.2018 19:00:00 24,3 14,3 1005,8 -

tt = Température de l'air
td = dewpoint
ppp = reduced air pressure
rr = Quantités de précipitations

stations d'obs. à proximité